Main page
METAR-TAF:

METAR-TAF

Airports :

Oil platform

Ula, Norway

latitude: 59-06-39N, longitude: 2-50-45E, elevation: 0 m

Current weather observation

The report was made 12 minutes ago, at 05:20 UTC
Wind 22 kt from the Southeast
Temperature 17°C
Humidity 88%
Pressure 1011 hPa
Visibility 10 km or more

METAR: ENLA 170520Z AUTO 14022KT 9999NDV NCD 17/15 Q1011 W///S3

Time: 07:32 (05:32 UTC)


TAF: missing

Weather observations and forecasts of more than 4000 airports (METAR and TAF reports).

The available stations are represented by yellow and red dots on the map.

Hover mouse over dot to see the name of the station.

Then click to see weather observations and forecasts.

To change the map : click on the green buttons with a black cross to zoom in, on the green button with a dash to zoom out, or on the green arrows for adjacent maps.


METAR-TAF: